Location: Unspecified
(49.2170°N, 0.0000°E)
Time: 15:04:15
(UTC+00:00)

Tiros 1 despin weight - Pass Details

Date: 22 January 2021
Orbit: 593 x 642 km, 48.2° (Epoch: 07 March)

Event Time Altitude Azimuth Distance (km) Brightness Sun altitude
Rises 21:25:46 0° 278° (W) 2,837 ? -45.5°
Enters shadow 21:26:06 - 276° (W) 2,725 ? -45.6°
Reaches altitude 10° 21:29:01 10° 253° (WSW) 1,926 - -46.0°
Maximum altitude 21:31:18 14° 222° (SW) 1,671 - -46.3°
Drops below altitude 10° 21:33:35 10° 190° (S) 1,916 - -46.7°
Sets 21:36:49 0° 165° (SSE) 2,814 - -47.1°
